Weather History for PAGK - July, 2014

Change the Weather History Date:

Friday, July 11, 2014

  Actual Average Record
Temperature  
Mean Temperature 57 °F -  
Max Temperature 66 °F 66 °F 86 °F (1951)
Min Temperature 48 °F 49 °F 37 °F (2006)
Degree Days  
Heating Degree Days 8    
Growing Degree Days 7 (Base 50)    
Moisture  
Dew Point 47 °F    
Average Humidity 75    
Maximum Humidity 97    
Minimum Humidity 43    
Precipitation  
Precipitation 0.20 in - - ()
Sea Level Pressure  
Sea Level Pressure 29.73 in    
Wind  
Wind Speed 8 mph (SSE)    
Max Wind Speed 22 mph    
Max Gust Speed 28 mph    
Visibility 10 miles    
Events Rain    
Averages and records for this station are not official NWS values.
T = Trace of Precipitation, MM = Missing Value Source: NWS Daily Summary

Daily Weather History Graph

Daily Weather History Graph

Search for Another Location

Airport or City:

Trip Planner

Search our weather history database for the weather conditions in past years. The results will help you decide how hot, cold, wet, or windy it might be!

Date:

Astronomy

Jul. 11, 2014 Rise Set
Actual Time 4:14 AM AKDT 11:18 PM AKDT
Civil Twilight 2:19 AM AKDT 1:15 AM AKDT
Nautical Twilight Sun does not set Sun does not set
Astronomical Twilight Sun does not set Sun does not set
Moon 9:59 PM AKDT (7/11) 4:06 AM AKDT (7/11)
Length of Visible Light 22h 55m
Length of Day
19h 04m
Waxing Gibbous, 99% of the Moon is Illuminated
Jul 11
Waxing Gibbous
Jul 12
Full
Jul 18
Last Quarter
Jul 26
New
Aug 3
First Quarter

Hourly Weather History & Observations

Time (AKDT) Temp. Dew Point Humidity Pressure Visibility Wind Dir Wind Speed Gust Speed Precip Events Conditions
12:53 AM 53.1 °F 48.0 °F 83% 29.71 in 10.0 mi East 4.6 mph - 0.01 in   Overcast
1:53 AM 53.1 °F 46.9 °F 80% 29.70 in 10.0 mi East 3.5 mph - 0.00 in   Overcast
2:53 AM 54.0 °F 46.9 °F 77% 29.68 in 10.0 mi East 4.6 mph - 0.00 in   Scattered Clouds
3:53 AM 52.0 °F 46.9 °F 83% 29.67 in 10.0 mi Calm Calm - N/A   Overcast
4:53 AM 51.1 °F 48.0 °F 89% 29.67 in 10.0 mi Calm Calm - 0.00 in Rain Light Rain
5:53 AM 50.0 °F 48.0 °F 93% 29.68 in 10.0 mi SSE 3.5 mph - 0.02 in Rain Light Rain
6:53 AM 50.0 °F 46.9 °F 89% 29.69 in 10.0 mi South 6.9 mph - 0.02 in Rain Light Rain
7:53 AM 50.0 °F 48.0 °F 93% 29.71 in 7.0 mi South 9.2 mph - 0.04 in Rain Light Rain
8:53 AM 48.9 °F 48.0 °F 97% 29.73 in 7.0 mi SSE 10.4 mph - 0.08 in Rain Light Rain
9:29 AM 48.9 °F 48.0 °F 97% 29.73 in 6.0 mi South 11.5 mph - 0.03 in Rain Light Rain
9:53 AM 48.9 °F 46.9 °F 93% 29.75 in 7.0 mi South 13.8 mph - 0.05 in Rain Light Rain
10:22 AM 48.9 °F 48.0 °F 97% 29.72 in 10.0 mi South 11.5 mph - 0.03 in Rain Light Rain
10:53 AM 48.9 °F 48.0 °F 97% 29.74 in 10.0 mi South 9.2 mph - 0.03 in Rain Light Rain
11:33 AM 53.1 °F 50.0 °F 89% 29.72 in 10.0 mi South 10.4 mph 17.3 mph 0.00 in   Overcast
11:53 AM 55.0 °F 50.0 °F 83% 29.73 in 10.0 mi South 10.4 mph - 0.00 in Rain Light Rain
12:53 PM 55.9 °F 48.0 °F 75% 29.73 in 10.0 mi South 18.4 mph 26.5 mph 0.00 in   Partly Cloudy
1:53 PM 55.0 °F 50.0 °F 83% 29.76 in 10.0 mi SSE 11.5 mph - N/A   Mostly Cloudy
2:53 PM 59.0 °F 48.9 °F 69% 29.74 in 10.0 mi SSE 11.5 mph - N/A   Overcast
3:53 PM 63.0 °F 46.0 °F 54% 29.73 in 10.0 mi SSE 21.9 mph 27.6 mph N/A   Partly Cloudy
4:53 PM 63.0 °F 45.0 °F 52% 29.74 in 10.0 mi South 13.8 mph 23.0 mph N/A   Mostly Cloudy
5:53 PM 64.0 °F 43.0 °F 46% 29.73 in 10.0 mi SSE 17.3 mph - N/A   Scattered Clouds
6:53 PM 66.0 °F 44.1 °F 45% 29.74 in 10.0 mi SSE 12.7 mph - N/A   Overcast
7:53 PM 64.0 °F 44.1 °F 48% 29.73 in 10.0 mi SSE 16.1 mph 20.7 mph N/A   Partly Cloudy
8:53 PM 62.1 °F 44.1 °F 52% 29.75 in 10.0 mi South 13.8 mph - N/A   Partly Cloudy
9:53 PM 59.0 °F 46.0 °F 62% 29.78 in 10.0 mi SE 11.5 mph - N/A   Mostly Cloudy
10:53 PM 57.0 °F 46.0 °F 67% 29.78 in 10.0 mi SSE 10.4 mph - N/A   Overcast
11:53 PM 55.0 °F 46.0 °F 72% 29.79 in 10.0 mi South 6.9 mph - N/A   Overcast